SBS 2

operational
NORAD ID: 12855 Int'l Des: 1981-096 Owner: SBS Country: US
HEOCIRCULAR

Über SBS 2

Beschreibung wird geladen...

Live-Position

3D-Globus wird geladen...

Nächste Überflüge

Höhenverlauf

Altitude vs Time

uPlot chart will show altitude changes over time

Zweizeiliger Elementsatz

1 12855U 81096A 25350.47292398 -.00000145 00000-0 00000-0 0 9995
2 12855 10.5532 322.6336 0007864 259.6225 191.4908 1.00167066116782
Epoch: 16. Dez. 2025 • Age: 20 hours

Aktueller Status

Höhe 35834.8 km
Geschwindigkeit 3.07 km/s
Subsatellitenpunkt 4.69°N, 157.47°E
Startdatum 24. Sept. 1981
Alter 44.2 years
Typ other

Technische Details

Klassifizierung Payload
Masse 521.00 kg
Trockenmasse 424.00 kg
Gesamtmasse 1064.00 kg
Länge 6.60 m
Durchmesser 2.20 m
Spannweite 6.60 m
Form Cyl
Hersteller HSES
Bus-Typ HS-376
Phasenstatus Unknown Active Status
Besitzer/Staat SBS/US

Große Konstellationen

Loading constellations...